Location: Chmeln�
(49.6483°N, 14.9871°E)
Time: 05:24:11
(UTC+00:00)

SJ-6B - Pass Details

Date: 18 September 2020
Orbit: 511 x 580 km, 97.6° (Epoch: 29 October)

Event Time Altitude Azimuth Distance (km) Brightness Sun altitude
Exits shadow 19:22:14 16° 207° (SSW) 1,409 4.8 -21.8°
Maximum altitude 19:24:42 32° 264° (W) 906 4.3 -22.1°
Drops below altitude 10° 19:28:06 10° 328° (NNW) 1,754 6.3 -22.6°
Sets 19:30:24 0° 339° (NNW) 2,654 7.1 -22.9°
